K4AVM-13 Weather Reports


Display with metric or nautical units.
time (UTC)temp
F
wind
direction
speed
MPH
gust
MPH
rain 1hr
in
rain 24hr
in
rain mn
in
humidity
%
barometer
mb
20260831200308 91 239 1.0 1.0 0.00 0.00 0.00 58 1018.9
20260831195803 91 11 2.0 3.0 0.00 0.00 0.00 58 1019.1
20260831195259 93 139 1.0 3.0 0.00 0.00 0.00 56 1019.0
20260831194754 95 222 0.0 2.0 0.00 0.00 0.00 53 1019.1
20260831194249 95 349 1.0 2.0 0.00 0.00 0.00 53 1019.3
20260831193743 93 233 0.0 1.0 0.00 0.00 0.00 54 1019.3
20260831193239 92 350 1.0 2.0 0.00 0.00 0.00 57 1019.2
20260831192733 92 336 1.0 2.0 0.00 0.00 0.00 54 1019.2
20260831192228 94 210 1.0 6.0 0.00 0.00 0.00 52 1019.2
20260831191725 94 220 0.0 1.0 0.00 0.00 0.00 53 1019.2
20260831191221 95 14 1.0 3.0 0.00 0.00 0.00 51 1019.4
20260831190716 95 228 1.0 2.0 0.00 0.00 0.00 53 1019.5
20260831190215 93 355 0.0 1.0 0.00 0.00 0.00 54 1019.6
20260831185710 94 235 0.0 1.0 0.00 0.00 0.00 53 1019.7
20260831185206 94 267 0.0 2.0 0.00 0.00 0.00 53 1019.7
20260831184704 94 233 0.0 1.0 0.00 0.00 0.00 56 1019.7
20260831184201 94 323 2.0 3.0 0.00 0.00 0.00 54 1019.7
20260831183659 94 249 3.0 3.0 0.00 0.00 0.00 54 1019.9
20260831183154 94 262 0.0 2.0 0.00 0.00 0.00 55 1019.9
20260831182653 92 5 1.0 3.0 0.00 0.00 0.00 59 1019.8
20260831182149 93 122 1.0 1.0 0.00 0.00 0.00 57 1019.8
20260831181643 93 344 2.0 3.0 0.00 0.00 0.00 57 1019.6
20260831181137 93 166 0.0 2.0 0.00 0.00 0.00 58 1019.9
20260831180633 94 246 0.0 0.0 0.00 0.00 0.00 56 1020.1
20260831180128 93 49 1.0 2.0 0.00 0.00 0.00 57 1020.0
20260831175622 92 210 1.0 1.0 0.00 0.00 0.00 59 1020.0
20260831175119 91 267 0.0 3.0 0.00 0.00 0.00 62 1020.2
20260831174614 92 243 0.0 2.0 0.00 0.00 0.00 62 1020.2
20260831174113 93 355 3.0 4.0 0.00 0.00 0.00 57 1020.1
20260831173612 92 229 1.0 1.0 0.00 0.00 0.00 60 1020.2
20260831173108 91 89 2.0 2.0 0.00 0.00 0.00 61 1020.1
20260831172603 91 240 1.0 4.0 0.00 0.00 0.00 64 1020.3
20260831172058 91 177 0.0 2.0 0.00 0.00 0.00 66 1020.3
20260831171553 91 258 1.0 3.0 0.00 0.00 0.00 61 1020.2
20260831171050 90 243 0.0 2.0 0.00 0.00 0.00 64 1020.2
20260831170546 91 350 3.0 4.0 0.00 0.00 0.00 62 1020.3
20260831170044 91 180 0.0 1.0 0.00 0.00 0.00 61 1020.3
20260831165543 90 241 0.0 0.0 0.00 0.00 0.00 62 1020.4
20260831165040 91 242 1.0 2.0 0.00 0.00 0.00 64 1020.5
20260831164536 91 340 1.0 3.0 0.00 0.00 0.00 62 1020.5
20260831164031 91 17 1.0 2.0 0.00 0.00 0.00 62 1020.5
20260831163526 91 282 1.0 3.0 0.00 0.00 0.00 61 1020.5
20260831163021 89 195 0.0 0.0 0.00 0.00 0.00 67 1020.6
20260831162515 90 265 1.0 2.0 0.00 0.00 0.00 65 1020.6
20260831162013 92 144 0.0 3.0 0.00 0.00 0.00 62 1020.7
20260831161509 91 250 1.0 2.0 0.00 0.00 0.00 63 1020.8
20260831161005 91 303 0.0 1.0 0.00 0.00 0.00 63 1020.8
20260831160505 91 283 0.0 2.0 0.00 0.00 0.00 65 1020.6
20260831160000 91 349 1.0 2.0 0.00 0.00 0.00 62 1020.6
20260831155454 90 215 0.0 2.0 0.00 0.00 0.00 64 1020.8
20260831154950 91 335 2.0 2.0 0.00 0.00 0.00 61 1020.7
20260831154446 91 149 1.0 1.0 0.00 0.00 0.00 65 1020.7
20260831153945 89 215 1.0 1.0 0.00 0.00 0.00 66 1020.7
20260831153440 90 91 1.0 1.0 0.00 0.00 0.00 65 1020.7
20260831152937 90 22 2.0 3.0 0.00 0.00 0.00 66 1020.9
20260831152432 89 80 0.0 0.0 0.00 0.00 0.00 68 1020.9
20260831151927 89 323 1.0 2.0 0.00 0.00 0.00 69 1020.8
20260831151426 87 181 0.0 3.0 0.00 0.00 0.00 71 1020.8
20260831150922 87 309 0.0 3.0 0.00 0.00 0.00 71 1020.8
20260831150417 87 251 0.0 1.0 0.00 0.00 0.00 70 1020.9
20260831145916 88 339 3.0 3.0 0.00 0.00 0.00 70 1021.1
20260831145413 86 32 0.0 3.0 0.00 0.00 0.00 71 1020.7
20260831144908 86 134 0.0 4.0 0.00 0.00 0.00 73 1020.9
20260831144404 86 67 0.0 1.0 0.00 0.00 0.00 72 1020.9
20260831143858 86 243 0.0 1.0 0.00 0.00 0.00 72 1021.0
20260831143348 85 2 2.0 4.0 0.00 0.00 0.00 73 1021.1
20260831142843 86 247 0.0 1.0 0.00 0.00 0.00 72 1021.1
20260831142338 86 296 1.0 2.0 0.00 0.00 0.00 74 1020.8
20260831141832 85 336 1.0 2.0 0.00 0.00 0.00 73 1020.8
20260831141327 85 218 1.0 2.0 0.00 0.00 0.00 74 1021.1
20260831140822 85 277 1.0 3.0 0.00 0.00 0.00 74 1020.9
20260831140316 85 305 1.0 2.0 0.00 0.00 0.00 75 1021.0
20260831135815 84 219 0.0 3.0 0.00 0.00 0.00 75 1021.1
20260831135310 84 324 0.0 1.0 0.00 0.00 0.00 77 1021.0
20260831134805 83 214 1.0 1.0 0.00 0.00 0.00 78 1021.1
20260831134302 83 336 2.0 4.0 0.00 0.00 0.00 78 1021.0
20260831133801 83 236 2.0 3.0 0.00 0.00 0.00 78 1021.2
20260831133301 82 226 0.0 2.0 0.00 0.00 0.00 78 1021.2
20260831132755 82 0 0.0 2.0 0.00 0.00 0.00 80 1020.9
20260831132250 82 294 0.0 3.0 0.00 0.00 0.00 80 1020.9
20260831131744 83 305 2.0 3.0 0.00 0.00 0.00 78 1021.0
20260831131242 82 97 0.0 1.0 0.00 0.00 0.00 79 1020.8
20260831130736 82 354 0.0 4.0 0.00 0.00 0.00 81 1020.9
20260831130231 82 228 1.0 1.0 0.00 0.00 0.00 79 1020.8
20260831125730 82 212 0.0 1.0 0.00 0.00 0.00 80 1020.8
20260831125226 81 279 0.0 3.0 0.00 0.00 0.00 82 1020.8
20260831124721 81 104 0.0 1.0 0.00 0.00 0.00 83 1020.8
20260831124217 80 343 0.0 1.0 0.00 0.00 0.00 83 1020.9
20260831123716 80 113 0.0 0.0 0.00 0.00 0.00 83 1020.9
20260831123215 79 113 0.0 1.0 0.00 0.00 0.00 84 1020.9
20260831122710 80 113 0.0 2.0 0.00 0.00 0.00 83 1021.0
20260831122206 80 117 0.0 0.0 0.00 0.00 0.00 84 1020.9
20260831121705 79 117 0.0 1.0 0.00 0.00 0.00 84 1020.8
20260831121202 78 147 0.0 1.0 0.00 0.00 0.00 86 1020.9
20260831120657 77 147 0.0 1.0 0.00 0.00 0.00 88 1020.9
20260831120151 75 216 0.0 0.0 0.00 0.00 0.00 92 1020.7
20260831115647 75 206 0.0 0.0 0.00 0.00 0.00 93 1020.8
20260831115143 74 184 0.0 1.0 0.00 0.00 0.00 94 1020.6
20260831114642 73 210 0.0 0.0 0.00 0.00 0.00 97 1020.6
20260831114137 73 209 0.0 0.0 0.00 0.00 0.00 97 1020.6
20260831113637 72 213 0.0 0.0 0.00 0.00 0.00 98 1020.4
20260831113132 72 226 0.0 0.0 0.00 0.00 0.00 98 1020.5
20260831112631 72 225 0.0 0.0 0.00 0.00 0.00 99 1020.4
20260831112126 72 235 0.0 0.0 0.00 0.00 0.00 99 1020.3
20260831111622 71 235 0.0 0.0 0.00 0.00 0.00 99 1020.5
20260831111118 71 311 0.0 0.0 0.00 0.00 0.00 99 1020.4
20260831110613 71 240 0.0 0.0 0.00 0.00 0.00 99 1020.3
20260831110109 71 240 0.0 0.0 0.00 0.00 0.00 99 1020.3
20260831105607 71 229 0.0 0.0 0.00 0.00 0.00 99 1020.3
20260831105102 71 232 0.0 0.0 0.00 0.00 0.00 99 1020.3
20260831104558 71 239 0.0 0.0 0.00 0.00 0.00 99 1020.4
20260831104054 71 240 0.0 0.0 0.00 0.00 0.00 99 1020.2
20260831103549 71 240 0.0 0.0 0.00 0.00 0.00 99 1020.3
20260831103045 71 241 0.0 0.0 0.00 0.00 0.00 99 1020.3
20260831102544 71 240 0.0 0.0 0.00 0.00 0.00 99 1020.2
20260831102040 71 243 0.0 0.0 0.00 0.00 0.00 99 1020.1
20260831101535 71 242 0.0 0.0 0.00 0.00 0.00 99 1020.1
20260831101031 71 240 0.0 0.0 0.00 0.00 0.00 98 1020.0
20260831100526 71 241 0.0 0.0 0.00 0.00 0.00 98 1019.9
20260831100023 71 230 0.0 0.0 0.00 0.00 0.00 98 1019.7
20260831095521 71 239 0.0 0.0 0.00 0.00 0.00 98 1019.9
20260831095016 71 243 0.0 0.0 0.00 0.00 0.00 98 1019.9
20260831094512 71 245 0.0 0.0 0.00 0.00 0.00 98 1019.9
20260831094008 71 239 0.0 0.0 0.00 0.00 0.00 98 1020.1
20260831093508 71 237 0.0 0.0 0.00 0.00 0.00 98 1019.9
20260831093004 71 239 0.0 0.0 0.00 0.00 0.00 98 1020.2
20260831092459 71 236 0.0 0.0 0.00 0.00 0.00 98 1020.2
20260831091954 72 239 0.0 0.0 0.00 0.00 0.00 98 1019.9
20260831091450 72 239 0.0 0.0 0.00 0.00 0.00 98 1020.0
20260831090944 72 242 0.0 0.0 0.00 0.00 0.00 97 1020.1
20260831090441 72 243 0.0 0.0 0.00 0.00 0.00 97 1020.2
20260831085937 72 231 0.0 0.0 0.00 0.00 0.00 97 1020.1
20260831085432 72 249 0.0 0.0 0.00 0.00 0.00 97 1020.0
20260831084931 72 250 0.0 0.0 0.00 0.00 0.00 96 1020.1
20260831084427 72 249 0.0 0.0 0.00 0.00 0.00 96 1020.2
20260831083924 72 251 0.0 0.0 0.00 0.00 0.00 96 1020.1
20260831083419 73 250 0.0 0.0 0.00 0.00 0.00 95 1020.0
20260831082918 73 247 0.0 0.0 0.00 0.00 0.00 95 1019.9
20260831082412 73 240 0.0 0.0 0.00 0.00 0.00 95 1019.9
20260831081908 73 225 0.0 0.0 0.00 0.00 0.00 94 1020.0
20260831081403 74 212 0.0 0.0 0.00 0.00 0.00 94 1019.9
20260831080859 74 211 0.0 0.0 0.00 0.00 0.00 93 1019.9
20260831080354 74 177 0.0 0.0 0.00 0.00 0.00 94 1020.0
20260831075849 74 167 0.0 0.0 0.00 0.00 0.00 94 1020.0
20260831075344 74 167 0.0 0.0 0.00 0.00 0.00 93 1020.0
20260831074839 74 172 0.0 0.0 0.00 0.00 0.00 93 1019.8
20260831074338 74 173 0.0 0.0 0.00 0.00 0.00 93 1019.9
20260831073834 74 171 0.0 0.0 0.00 0.00 0.00 93 1020.1
20260831073333 74 152 0.0 1.0 0.00 0.00 0.00 93 1020.1
20260831072828 74 153 0.0 0.0 0.00 0.00 0.00 93 1020.0
20260831072324 74 183 0.0 0.0 0.00 0.00 0.00 93 1020.0
20260831071820 74 185 0.0 0.0 0.00 0.00 0.00 93 1020.2
20260831071319 74 149 0.0 0.0 0.00 0.00 0.00 93 1020.2
20260831070814 74 150 0.0 1.0 0.00 0.00 0.00 93 1020.2
20260831070312 74 154 0.0 0.0 0.00 0.00 0.00 93 1020.1
20260831065812 74 155 0.0 0.0 0.00 0.00 0.00 94 1020.1
20260831065310 74 154 0.0 0.0 0.00 0.00 0.00 94 1020.0
20260831064806 73 154 0.0 0.0 0.00 0.00 0.00 95 1020.3
20260831064301 73 155 0.0 0.0 0.00 0.00 0.00 95 1020.3
20260831063757 73 154 0.0 0.0 0.00 0.00 0.00 95 1020.3
20260831063251 73 155 0.0 0.0 0.00 0.00 0.00 95 1020.3
20260831062746 73 186 0.0 0.0 0.00 0.00 0.00 95 1020.3
20260831062241 73 239 0.0 0.0 0.00 0.00 0.00 95 1020.2
20260831061739 73 248 0.0 0.0 0.00 0.00 0.00 95 1020.0
20260831061234 73 248 0.0 0.0 0.00 0.00 0.00 95 1020.2
20260831060730 73 204 0.0 0.0 0.00 0.00 0.00 94 1020.3
20260831060225 74 205 0.0 0.0 0.00 0.00 0.00 94 1020.3
20260831055725 74 210 0.0 0.0 0.00 0.00 0.00 94 1020.5
20260831055224 74 248 0.0 0.0 0.00 0.00 0.00 93 1020.4
20260831054719 74 248 0.0 0.0 0.00 0.00 0.00 93 1020.3
20260831054215 74 248 0.0 0.0 0.00 0.00 0.00 93 1020.4
20260831053713 74 200 0.0 0.0 0.00 0.00 0.00 92 1020.3
20260831053213 75 200 0.0 0.0 0.00 0.00 0.00 92 1020.4
20260831052712 75 224 0.0 0.0 0.00 0.00 0.00 92 1020.7
20260831052211 75 235 0.0 0.0 0.00 0.00 0.00 92 1020.5
20260831051709 75 235 0.0 0.0 0.00 0.00 0.00 92 1020.4
20260831051208 75 331 0.0 0.0 0.00 0.00 0.00 92 1020.7
20260831050703 75 239 0.0 0.0 0.00 0.00 0.00 92 1020.8
20260831050202 75 239 0.0 0.0 0.00 0.00 0.00 92 1020.6
20260831045657 75 220 0.0 0.0 0.00 0.00 0.00 92 1020.6
20260831045152 75 183 0.0 1.0 0.00 0.00 0.00 92 1020.6
20260831044647 75 111 0.0 0.0 0.00 0.00 0.00 93 1020.8
20260831044142 75 111 0.0 0.0 0.00 0.00 0.00 93 1020.8
20260831043638 75 110 0.0 0.0 0.00 0.00 0.00 93 1020.8
20260831043133 75 108 0.0 0.0 0.00 0.00 0.00 93 1020.7
20260831042632 75 108 0.0 0.0 0.00 0.00 0.00 94 1020.8
20260831042127 75 111 0.0 0.0 0.00 0.00 0.00 94 1020.8
20260831041621 74 108 0.0 0.0 0.00 0.00 0.00 94 1020.7
20260831041120 74 112 0.0 0.0 0.00 0.00 0.00 94 1020.8
20260831040616 74 112 0.0 0.0 0.00 0.00 0.00 95 1020.8
20260831040109 75 108 0.0 0.0 0.00 0.00 0.00 95 1020.8
20260831035607 75 108 0.0 0.0 0.00 0.00 0.00 95 1020.8
20260831035057 75 109 0.0 0.0 0.00 0.00 0.00 94 1020.9
20260831034556 75 111 0.0 0.0 0.00 0.00 0.00 94 1021.0
20260831034052 75 110 0.0 0.0 0.00 0.00 0.00 94 1021.0
20260831033547 75 112 0.0 0.0 0.00 0.00 0.00 93 1021.1
20260831033042 75 109 0.0 0.0 0.00 0.00 0.00 93 1021.1
20260831032542 75 112 0.0 0.0 0.00 0.00 0.00 93 1020.9
20260831032038 75 111 0.0 0.0 0.00 0.00 0.00 93 1021.1
20260831031536 76 112 0.0 0.0 0.00 0.00 0.00 92 1021.1
20260831031031 76 112 0.0 0.0 0.00 0.00 0.00 92 1021.0
20260831030530 76 112 0.0 0.0 0.00 0.00 0.00 92 1021.1
20260831030030 76 111 0.0 0.0 0.00 0.00 0.00 92 1021.0
20260831025527 76 112 0.0 0.0 0.00 0.00 0.00 92 1021.2
20260831025023 76 111 0.0 0.0 0.00 0.00 0.00 92 1021.1
20260831024513 76 111 0.0 0.0 0.00 0.00 0.00 92 1021.0
20260831024013 76 111 0.0 0.0 0.00 0.00 0.00 92 1021.1
20260831023510 76 112 0.0 0.0 0.00 0.00 0.00 92 1021.0
20260831023005 76 111 0.0 0.0 0.00 0.00 0.00 92 1020.8
20260831022504 76 112 0.0 0.0 0.00 0.00 0.00 91 1021.0
20260831022000 76 111 0.0 0.0 0.00 0.00 0.00 91 1021.2
20260831021458 77 112 0.0 0.0 0.00 0.00 0.00 90 1021.3
20260831020954 77 112 0.0 0.0 0.00 0.00 0.00 90 1021.0
20260831020449 77 112 0.0 0.0 0.00 0.00 0.00 90 1021.1
20260831015943 77 112 0.0 0.0 0.00 0.00 0.00 89 1021.1
20260831015439 77 112 0.0 0.0 0.00 0.00 0.00 89 1021.0
20260831014934 77 112 0.0 0.0 0.00 0.00 0.00 88 1021.2
20260831014429 77 111 0.0 1.0 0.00 0.00 0.00 89 1021.2
20260831013924 77 250 0.0 0.0 0.00 0.00 0.00 90 1021.0
20260831013420 77 239 0.0 0.0 0.00 0.00 0.00 90 1021.2
20260831012914 77 248 0.0 0.0 0.00 0.00 0.00 89 1021.2
20260831012409 77 249 0.0 0.0 0.00 0.00 0.00 88 1021.3
20260831011909 78 250 0.0 0.0 0.00 0.00 0.00 88 1021.3
20260831011404 78 250 0.0 0.0 0.00 0.00 0.00 87 1021.2
20260831010859 78 257 0.0 0.0 0.00 0.00 0.00 87 1021.2
20260831010354 78 250 0.0 0.0 0.00 0.00 0.00 86 1021.0
20260831005850 78 242 0.0 0.0 0.00 0.00 0.00 86 1021.0
20260831005345 78 248 0.0 0.0 0.00 0.00 0.00 86 1020.8
20260831004840 79 246 0.0 0.0 0.00 0.00 0.00 85 1020.9
20260831004336 79 247 0.0 0.0 0.00 0.00 0.00 85 1020.7
20260831003832 79 146 0.0 0.0 0.00 0.00 0.00 84 1020.7
20260831003328 79 254 0.0 0.0 0.00 0.00 0.00 84 1020.6
20260831002827 79 238 0.0 0.0 0.00 0.00 0.00 84 1020.4
20260831002320 79 238 0.0 0.0 0.00 0.00 0.00 83 1020.3
20260831001816 79 238 0.0 0.0 0.00 0.00 0.00 83 1020.4
20260831001311 80 238 0.0 0.0 0.00 0.00 0.00 83 1020.4
20260831000809 80 238 0.0 0.0 0.00 0.00 0.00 81 1020.4
20260831000310 80 254 0.0 0.0 0.00 0.00 0.00 80 1020.3
20260830235807 80 235 0.0 0.0 0.00 0.00 0.00 79 1020.6
20260830235305 81 235 0.0 0.0 0.00 0.00 0.00 79 1020.3
20260830234757 81 235 0.0 0.0 0.00 0.00 0.00 78 1020.4
20260830234253 81 211 0.0 0.0 0.00 0.00 0.00 77 1020.3
20260830233748 82 211 0.0 0.0 0.00 0.00 0.00 76 1020.3
20260830233243 82 233 0.0 0.0 0.00 0.00 0.00 76 1020.3
20260830232734 82 232 0.0 0.0 0.00 0.00 0.00 75 1020.4
20260830232229 83 231 0.0 0.0 0.00 0.00 0.00 74 1020.4
20260830231725 83 231 0.0 0.0 0.00 0.00 0.00 73 1020.4
20260830231225 84 231 0.0 0.0 0.00 0.00 0.00 72 1020.4
20260830230720 85 231 0.0 0.0 0.00 0.00 0.00 69 1020.3
20260830230215 86 216 0.0 0.0 0.00 0.00 0.00 67 1020.1
20260830225709 86 198 0.0 2.0 0.00 0.00 0.00 66 1020.2
20260830225209 86 213 0.0 1.0 0.00 0.00 0.00 66 1020.2
20260830224708 86 225 0.0 0.0 0.00 0.00 0.00 65 1020.2
20260830224204 86 219 0.0 2.0 0.00 0.00 0.00 64 1020.3
20260830223701 86 213 0.0 0.0 0.00 0.00 0.00 67 1020.4
20260830223156 87 223 0.0 0.0 0.00 0.00 0.00 64 1020.2
20260830222650 87 165 2.0 3.0 0.00 0.00 0.00 62 1020.1
20260830222146 87 199 0.0 0.0 0.00 0.00 0.00 63 1020.2
20260830221641 87 190 1.0 1.0 0.00 0.00 0.00 62 1020.3
20260830221132 87 219 0.0 4.0 0.00 0.00 0.00 62 1020.3
20260830220627 88 202 0.0 0.0 0.00 0.00 0.00 61 1020.2
20260830220126 89 210 2.0 3.0 0.00 0.00 0.00 59 1020.3
20260830215625 90 218 0.0 1.0 0.00 0.00 0.00 57 1020.2
20260830215120 91 220 0.0 2.0 0.00 0.00 0.00 57 1020.1
20260830214615 90 218 0.0 1.0 0.00 0.00 0.00 57 1020.2
20260830214109 90 219 0.0 2.0 0.00 0.00 0.00 57 1020.2
20260830213603 91 112 3.0 4.0 0.00 0.00 0.00 55 1020.3
20260830213059 90 227 0.0 2.0 0.00 0.00 0.00 57 1020.1
20260830212555 90 188 1.0 1.0 0.00 0.00 0.00 58 1020.1
20260830212055 91 180 2.0 3.0 0.00 0.00 0.00 56 1020.1
20260830211549 92 203 1.0 1.0 0.00 0.00 0.00 54 1020.0
20260830211044 91 251 0.0 2.0 0.00 0.00 0.00 55 1020.0
20260830210539 91 224 0.0 2.0 0.00 0.00 0.00 55 1020.0
20260830210038 91 219 1.0 2.0 0.00 0.00 0.00 56 1020.0
20260830205536 91 186 3.0 4.0 0.00 0.00 0.00 54 1020.0
20260830205032 90 239 0.0 2.0 0.00 0.00 0.00 57 1020.2
20260830204530 91 99 1.0 3.0 0.00 0.00 0.00 58 1020.3
20260830204024 91 238 0.0 2.0 0.00 0.00 0.00 55 1020.2
20260830203520 91 250 1.0 2.0 0.00 0.00 0.00 56 1020.3
20260830203010 92 221 1.0 2.0 0.00 0.00 0.00 55 1020.1
20260830202504 92 225 0.0 1.0 0.00 0.00 0.00 55 1020.5
20260830202001 92 219 0.0 1.0 0.00 0.00 0.00 56 1020.5
20260830201459 91 242 0.0 1.0 0.00 0.00 0.00 58 1020.3
20260830200954 90 219 0.0 2.0 0.00 0.00 0.00 56 1020.4
20260830200449 91 89 2.0 2.0 0.00 0.00 0.00 57 1020.5